Location: Courcelles
(49.2596°N, 1.7419°E)
Time: 21:44:41
(UTC+00:00)

USA 281 - Pass Details

Date: 17 November 2025
Orbit: 1079 x 1080 km, 106.0° (Epoch: 27 November)

Event Time Altitude Azimuth Distance (km) Brightness Sun altitude
Exits shadow 19:02:01 69° 86° (E) 1,152 3.0 -28.0°
Maximum altitude 19:02:27 71° 59° (ENE) 1,139 3.1 -28.1°
Drops below altitude 10° 19:08:59 10° 337° (NNW) 2,932 5.8 -29.1°
Sets 19:11:31 0° 336° (NNW) 3,891 6.5 -29.6°
